User: anonymous   Login
Location: Morlupo
(42.1333°N, 12.5000°E)
Time: 12:04:27
(UTC+00:00)
Language:

ATLAS 3B R/B - Orbit

View from above orbital plane
View from above orbital plane
View from above satellite
View from above satellite

Ground track
Ground track

The orbit data is extracted from the following two-line orbital elements,

1 28538U 05004B   21164.90411217 0.00000020  00000-0  33402-4 0    05
2 28538  63.8280 222.3502 0122816  13.2470 346.7530 13.43144503    04
Epoch (UTC): 13 June 2021 21:41:55
Eccentricity: 0.0122816
inclination: 63.8280°
perigee height: 1006 km
apogee height: 1189 km
right ascension of ascending node: 222.3502°
argument of perigee: 13.2470°
revolutions per day: 13.43144503
mean anomaly at epoch: 346.7530°
orbit number at epoch: 0

The dashed part of the orbit path shows where the satellite is in the earth's shadow,  

DLR